User: anonymous   Login
Location: New Canada
(47.1017°N, 68.5042°W)
Time: 10:03:41
(UTC+00:00)
Language:

FENGYUN 1C DEB - Orbit

View from above orbital plane
View from above orbital plane
View from above satellite
View from above satellite

Ground track
Ground track

The orbit data is extracted from the following two-line orbital elements,

1 31667U 99025CBZ 23331.30303043  .00001018  00000-0  47733-3 0  9993
2 31667  99.1171 146.7879 0053056  61.8998 298.7527 14.21739289453799
Epoch (UTC): 27 November 2023 07:16:21
Eccentricity: 0.0053056
inclination: 99.1171°
perigee height: 781 km
apogee height: 857 km
right ascension of ascending node: 146.7879°
argument of perigee: 61.8998°
revolutions per day: 14.21739289
mean anomaly at epoch: 298.7527°
orbit number at epoch: 45379

The dashed part of the orbit path shows where the satellite is in the earth's shadow,  

DLR